WB5OMR-9 Weather Reports


time (UTC)temp
C
wind
direction
speed
KPH
gust
KPH
rain 1hr
cm
rain 24hr
cm
rain mn
cm
humidity
%
barometer
mb
20260505173251 28 0.0 0.0 0.00 0.00 0.00 72 1008.5
20260505172250 28 0.0 0.0 0.00 0.00 0.00 72 1008.5
20260505171207 28 0.0 0.0 0.00 0.00 0.00 73 1008.5
20260505170206 27 0.0 0.0 0.00 0.00 0.00 76 1008.1
20260505165205 27 0.0 0.0 0.00 0.00 0.00 78 1008.5
20260505164204 26 0.0 0.0 0.00 0.00 0.00 80 1008.5
20260505163203 25 0.0 0.0 0.00 0.00 0.00 81 1008.5
20260505162202 25 0.0 0.0 0.00 0.00 0.00 82 1008.5
20260505161201 25 0.0 0.0 0.00 0.00 0.00 83 1008.5
20260505160159 24 0.0 0.0 0.00 0.00 0.00 83 1008.5
20260505153156 23 0.0 0.0 0.00 0.00 0.00 85 1008.5
20260505152155 23 0.0 0.0 0.00 0.00 0.00 85 1008.5
20260505151153 23 0.0 0.0 0.00 0.00 0.00 86 1008.5
20260505150153 23 0.0 0.0 0.00 0.00 0.00 87 1008.5
20260505124054 20 0.0 0.0 0.00 0.00 0.00 89 1008.1
20260505123052 20 0.0 0.0 0.00 0.00 0.00 89 1007.8
20260505122051 20 0.0 0.0 0.00 0.00 0.00 89 1007.8
20260505121050 20 0.0 0.0 0.00 0.00 0.00 89 1007.8
20260505120049 20 0.0 0.0 0.00 0.00 0.00 89 1007.5
20260505115048 20 0.0 0.0 0.00 0.00 0.00 89 1007.5
20260505114047 20 0.0 0.0 0.00 0.00 0.00 89 1007.5
20260505113045 20 0.0 0.0 0.00 0.00 0.00 89 1007.1
20260505112044 20 0.0 0.0 0.00 0.00 0.00 89 1007.5
20260505111043 20 0.0 0.0 0.00 0.00 0.00 89 1007.5
20260505101913 20 0.0 0.0 0.00 0.00 0.00 88 1007.5
20260505100911 20 0.0 0.0 0.00 0.00 0.00 88 1007.5
20260505095910 20 0.0 0.0 0.00 0.00 0.00 88 1007.5
20260505094909 20 0.0 0.0 0.00 0.00 0.00 88 1007.5
20260505093907 20 0.0 0.0 0.00 0.00 0.00 88 1007.5
20260505092906 20 0.0 0.0 0.00 0.00 0.00 88 1007.5
20260505091906 20 0.0 0.0 0.00 0.00 0.00 88 1007.8
20260505090905 20 0.0 0.0 0.00 0.00 0.00 88 1007.8
20260505085904 20 0.0 0.0 0.00 0.00 0.00 88 1007.8
20260505084903 20 0.0 0.0 0.00 0.00 0.00 88 1007.8
20260505083902 20 0.0 0.0 0.00 0.00 0.00 87 1007.8
20260505082819 20 0.0 0.0 0.00 0.00 0.00 87 1008.1
20260505081818 20 0.0 0.0 0.00 0.00 0.00 87 1008.1
20260505080817 20 0.0 0.0 0.00 0.00 0.00 87 1008.1
20260505075816 20 0.0 0.0 0.00 0.00 0.00 87 1008.1
20260505074815 20 0.0 0.0 0.00 0.00 0.00 87 1008.5
20260505073814 20 0.0 0.0 0.00 0.00 0.00 87 1008.8
20260505072813 20 0.0 0.0 0.00 0.00 0.00 87 1008.8
20260505071811 20 0.0 0.0 0.00 0.00 0.00 87 1008.8
20260505070810 20 0.0 0.0 0.00 0.00 0.00 86 1008.8
20260505065727 20 0.0 0.0 0.00 0.00 0.00 86 1008.8
20260505064725 21 0.0 0.0 0.00 0.00 0.00 86 1009.1
20260505063724 21 0.0 0.0 0.00 0.00 0.00 86 1009.5
20260505062723 21 0.0 0.0 0.00 0.00 0.00 86 1009.5
20260505061722 21 0.0 0.0 0.00 0.00 0.00 86 1009.5
20260505060639 21 0.0 0.0 0.00 0.00 0.00 85 1009.5
20260505055638 21 0.0 0.0 0.00 0.00 0.00 85 1009.8
20260505054637 21 0.0 0.0 0.00 0.00 0.00 84 1009.8
20260505053636 21 0.0 0.0 0.00 0.00 0.00 84 1009.8
20260505052635 21 0.0 0.0 0.00 0.00 0.00 83 1009.8
20260505051634 21 0.0 0.0 0.00 0.00 0.00 83 1009.8
20260505050634 21 0.0 0.0 0.00 0.00 0.00 82 1009.8
20260505041547 22 0.0 0.0 0.00 0.00 0.00 80 1009.5
20260505040504 22 0.0 0.0 0.00 0.00 0.00 79 1009.8
20260505035503 22 0.0 0.0 0.00 0.00 0.00 79 1009.5
20260505034501 22 0.0 0.0 0.00 0.00 0.00 78 1009.8
20260505033500 22 0.0 0.0 0.00 0.00 0.00 77 1009.8
20260505032459 22 0.0 0.0 0.00 0.00 0.00 77 1009.8
20260505031458 22 0.0 0.0 0.00 0.00 0.00 76 1009.5
20260505030415 22 0.0 0.0 0.00 0.00 0.00 75 1009.5
20260505025414 22 0.0 0.0 0.00 0.00 0.00 75 1009.5
20260505024413 23 0.0 0.0 0.00 0.00 0.00 74 1009.5
20260505023412 23 0.0 0.0 0.00 0.00 0.00 74 1009.5
20260505022411 23 0.0 0.0 0.00 0.00 0.00 73 1009.5
20260505021327 23 0.0 0.0 0.00 0.00 0.00 72 1009.1
20260505020244 24 0.0 0.0 0.00 0.00 0.00 71 1009.1
20260505015201 24 0.0 0.0 0.00 0.00 0.00 70 1009.1
20260505014159 25 0.0 0.0 0.00 0.00 0.00 69 1009.1
20260505013158 25 0.0 0.0 0.00 0.00 0.00 68 1009.1
20260505012156 25 0.0 0.0 0.00 0.00 0.00 68 1009.1
20260505011155 25 0.0 0.0 0.00 0.00 0.00 66 1009.1
20260505010155 26 0.0 0.0 0.00 0.00 0.00 65 1009.1
20260505005154 26 0.0 0.0 0.00 0.00 0.00 65 1009.1
20260505004153 26 0.0 0.0 0.00 0.00 0.00 64 1009.1
20260505003152 26 0.0 0.0 0.00 0.00 0.00 63 1009.1
20260505002151 26 0.0 0.0 0.00 0.00 0.00 63 1008.8
20260505001150 27 0.0 0.0 0.00 0.00 0.00 61 1009.1
20260505000107 27 0.0 0.0 0.00 0.00 0.00 61 1009.1
20260504235106 27 0.0 0.0 0.00 0.00 0.00 60 1009.1
20260504234105 27 0.0 0.0 0.00 0.00 0.00 60 1009.1
20260504233104 28 0.0 0.0 0.00 0.00 0.00 60 1009.5
20260504232021 27 0.0 0.0 0.00 0.00 0.00 61 1009.1
20260504231019 27 0.0 0.0 0.00 0.00 0.00 60 1009.5
20260504230018 28 0.0 0.0 0.00 0.00 0.00 60 1009.5
20260504225017 27 0.0 0.0 0.00 0.00 0.00 61 1009.5
20260504224016 28 0.0 0.0 0.00 0.00 0.00 60 1010.2
20260504223015 28 0.0 0.0 0.00 0.00 0.00 60 1010.2
20260504222014 28 0.0 0.0 0.00 0.00 0.00 59 1010.2
20260504221013 28 0.0 0.0 0.00 0.00 0.00 60 1010.2
20260504220011 28 0.0 0.0 0.00 0.00 0.00 59 1010.2
20260504215010 28 0.0 0.0 0.00 0.00 0.00 59 1010.2
20260504214009 28 0.0 0.0 0.00 0.00 0.00 59 1010.5
20260504213007 28 0.0 0.0 0.00 0.00 0.00 60 1010.5
20260504212006 28 0.0 0.0 0.00 0.00 0.00 59 1010.5
20260504211005 28 0.0 0.0 0.00 0.00 0.00 62 1010.8
20260504210004 27 0.0 0.0 0.00 0.00 0.00 61 1010.8
20260504205004 27 0.0 0.0 0.00 0.00 0.00 63 1011.5
20260504204002 27 0.0 0.0 0.00 0.00 0.00 64 1011.5
20260504203001 26 0.0 0.0 0.00 0.00 0.00 64 1011.9
20260504201918 26 0.0 0.0 0.00 0.00 0.00 64 1011.9
20260504200917 26 0.0 0.0 0.00 0.00 0.00 64 1011.9
20260504195834 26 0.0 0.0 0.00 0.00 0.00 64 1012.2
20260504194751 26 0.0 0.0 0.00 0.00 0.00 64 1012.2
20260504193750 26 0.0 0.0 0.00 0.00 0.00 65 1012.5
20260504192749 26 0.0 0.0 0.00 0.00 0.00 65 1012.5
20260504191747 26 0.0 0.0 0.00 0.00 0.00 64 1012.5
20260504190746 26 0.0 0.0 0.00 0.00 0.00 65 1012.5
20260504185703 26 0.0 0.0 0.00 0.00 0.00 65 1012.9
20260504184702 26 0.0 0.0 0.00 0.00 0.00 64 1012.5
20260504183701 26 0.0 0.0 0.00 0.00 0.00 65 1012.9
20260504182700 26 0.0 0.0 0.00 0.00 0.00 66 1013.2
20260504181659 26 0.0 0.0 0.00 0.00 0.00 65 1013.2
20260504180658 26 0.0 0.0 0.00 0.00 0.00 65 1013.2
20260504175615 26 0.0 0.0 0.00 0.00 0.00 66 1013.2
20260504174532 26 0.0 0.0 0.00 0.00 0.00 67 1013.2